星链-35676(STARLINK-35676)

导读

STARLINK-35676是美国SpaceX星链计划的卫星,于2026年1月9日发射升空。星链项目旨在构建全球卫星互联网星座,为全球偏远地区、海洋与航空场景提供低成本高速网络服务。该卫星继承星链成熟技术设计,延续低轨部署方案,将进一步完善星链星座的全球覆盖能力,提升星座整体服务性能与稳定性。

Basic Information
目录编号:
67345
目录名称:
STARLINK-35676
国际标识:
2026-003M
轨道中心:
EARTH
卫星名称:
星链-35676
卫星全名:
星链-35676(STARLINK-35676)
卫星状态:
在轨 (已飞行238 天)
发射日期:
2026-01-09 UTC
国别 :
美国 (US)
星等 :
--
Orbit Information
数据来源 国际轨道数据
星历时间: 2026-09-03T12:44:46+0800
1天前
查看轨道信息
半长轴: 6861.176km
偏心率: 0.0000795
轨道倾角: 43.000°
近地点辐角 275.063°
升交点赤经 304.408°
平近点角 85.013°
近地点: 482.493km
远地点: 483.585km
周期: 94.267分钟
每日圈数: 15.275834
Detailed Information
固有亮度:
5
最大亮度:
2.5
卫星平台:
Starlink V1.0
覆盖范围:
全球
运营商:
太空探索技术公司
运营商所在国:
美国
制造商(研发单位):
太空探索技术公司
制造商所在国:
美国
使用方式:
暂无
Satellite Introduction
Starlink 计划是 SpaceX 推出的全球卫星互联网项目,通过发射低轨道卫星,为全球尤其是偏远地区提供高速、低延迟的互联网服务。自 2019 年起,Starlink 已部署数千颗卫星,旨在缩小全球数字鸿沟,推动互联网普及。该项目还为军事、航空等行业提供通信支持,带来广泛经济效益。
2D Orbit Map
3D Orbit Map
Orbit Altitude Analysis Chart
Orbit Inclination Analysis Chart
Orbit Comprehensive Analysis Chart
View Comprehensive Chart
Conjunction Data List
Event ID Objects TCA Miss Dist (km) Collision Risk Probability Collision Risk Index (CRI) Action
CDM_260906-211705-558906-734521
2026-09-06T
21:17:11+0000
0.338 km
远距离
3.518458E-4 高风险 0.86
CDM_260906-211805-844906-734521
2026-09-06T
21:18:55+0000
0.555 km
远距离
1.259963E-4 高风险 0.77
CDM_260907-070805-974906-734521
2026-09-07T
07:08:36+0000
0.883 km
远距离
1.615939E-5 中风险 0.59
CDM_260906-082605-738006-734521
2026-09-06T
08:26:16+0000
0.804 km
远距离
1.165467E-5 中风险 0.56
CDM_260906-095605-861006-734521
2026-09-06T
09:56:03+0000
1.157 km
极远距离
7.701715E-6 低风险 0.53
CDM_260904-180906-308006-734521
2026-09-04T
18:09:47+0000
1.281 km
极远距离
5.405486E-6 低风险 0.5
CDM_260906-194405-844906-734521
2026-09-06T
19:44:46+0000
1.498 km
极远距离
5.170029E-6 低风险 0.49
CDM_260906-113005-861006-734521
2026-09-06T
11:30:12+0000
1.719 km
极远距离
2.174886E-6 低风险 0.42
CDM_260906-194305-558906-734521
2026-09-06T
19:43:01+0000
2.503 km
极远距离
1.367535E-6 低风险 0.38
CDM_260907-053405-974906-734521
2026-09-07T
05:34:27+0000
1.933 km
极远距离
1.358577E-6 低风险 0.38